Theta_e
300 300 300 300 300 300 300 300 300 300 301 301 301 302 302 302 302 310 312 310 310 307 306 310 313 314 320 322 325 327 330 330 329 328 327 325 325 324 325 327 329 335 337 337 338
300 300 300 300 300 301 300 301 302 303 303 303 302 303 303 303 304 311 310 307 306 305 310 311 312 314 319 323 326 328 331 330 329 328 328 326 325 325 326 328 329 334 334 334 337
300 300 300 300 300 301 302 303 303 303 303 303 303 303 303 303 314 314 306 306 305 307 310 312 312 314 316 321 324 328 332 330 329 328 328 326 325 325 326 328 330 333 334 334 334
300 300 300 301 300 301 302 303 303 302 303 304 304 303 303 308 314 311 309 309 307 306 310 312 313 314 317 319 322 326 327 328 329 329 329 329 325 325 326 326 328 331 334 334 333
300 300 300 301 301 301 302 303 303 303 302 303 303 303 310 313 311 309 309 311 312 311 310 310 315 316 317 318 319 323 325 326 326 327 328 329 328 328 327 326 326 327 332 332 331
300 300 301 302 301 302 302 303 303 303 303 303 303 305 314 314 309 310 310 311 312 312 312 311 310 313 316 318 319 320 322 323 324 326 327 329 329 329 329 328 327 326 327 329 331
300 300 301 302 302 302 302 302 303 303 304 303 304 308 314 311 310 310 311 311 312 311 312 312 311 310 315 318 317 318 319 321 322 324 326 327 328 329 328 328 329 329 329 330 332
301 300 300 301 302 302 303 303 303 304 303 305 306 313 314 309 309 309 310 311 311 311 311 311 311 311 311 311 314 318 320 320 321 322 323 325 328 328 327 328 328 329 329 329 331
300 301 301 301 302 303 305 304 304 304 305 305 315 313 313 309 309 308 309 310 309 310 311 311 311 311 312 312 312 314 319 320 320 321 322 323 326 327 327 327 329 329 329 329 329
298 301 301 301 302 304 305 308 309 307 309 312 311 314 312 309 309 308 309 309 309 310 311 311 312 314 314 313 312 313 315 317 320 321 321 322 323 324 324 326 328 328 329 329 329
299 299 301 301 302 305 306 312 313 315 312 311 310 310 309 309 308 309 309 308 310 311 313 313 314 315 315 315 315 314 314 315 318 319 320 321 323 323 324 324 326 327 328 329 329
305 298 301 302 301 305 310 311 310 310 311 310 310 309 309 309 309 309 309 309 311 312 312 312 313 314 314 314 313 313 314 314 315 317 320 321 322 322 324 325 324 325 326 327 328
307 300 302 303 301 308 310 310 310 310 312 311 309 309 309 309 310 309 309 309 311 311 311 311 312 312 312 312 313 313 312 313 315 316 318 321 321 322 323 323 324 324 324 325 326
307 301 303 302 308 309 312 310 310 310 315 312 311 310 309 309 311 309 309 309 310 311 311 311 311 311 311 311 312 312 313 312 313 314 316 319 322 322 323 324 324 324 324 324 325
307 302 303 301 310 312 311 310 310 311 319 311 311 309 309 310 310 310 309 309 310 310 311 311 311 311 312 312 312 313 313 313 313 313 314 315 320 321 323 323 324 325 323 323 323
307 303 305 307 310 311 310 310 311 317 316 311 310 311 311 311 311 310 310 309 309 310 312 312 312 312 312 313 312 313 313 313 312 313 315 315 318 320 321 323 323 324 323 323 323
307 304 307 308 313 310 310 311 316 317 312 312 311 311 312 312 311 311 311 311 311 311 312 311 312 312 312 313 314 314 315 314 312 314 314 315 318 319 320 321 322 322 322 323 322
307 306 310 311 311 310 311 315 316 313 312 312 312 312 313 311 311 311 312 312 311 311 312 312 313 312 312 312 313 313 314 313 312 314 314 314 315 318 320 321 320 321 320 321 322
307 312 313 313 311 309 312 316 315 313 311 312 312 313 312 312 312 311 312 311 311 311 311 312 312 312 312 313 313 315 315 314 312 312 314 316 317 317 320 320 320 321 320 321 322
307 312 314 311 311 310 314 314 311 311 311 311 312 312 312 312 311 311 311 311 310 311 311 312 314 311 312 314 314 315 315 316 313 314 314 315 316 318 318 319 320 321 322 322 323
311 311 312 308 309 312 315 312 310 309 309 311 312 312 312 312 312 312 311 311 311 311 311 312 313 313 311 313 315 313 315 314 316 314 315 316 316 317 319 319 320 322 322 321 321
310 314 311 306 312 311 312 308 307 310 310 311 311 311 311 311 311 312 311 311 310 310 311 312 313 313 312 312 312 314 315 313 315 313 314 314 315 317 319 321 322 322 321 320 320
308 310 309 308 314 313 310 309 309 310 311 310 310 310 311 310 313 313 312 310 310 310 312 312 313 314 312 313 314 314 315 313 314 316 319 318 317 318 321 322 321 320 319 320 318
308 312 310 309 310 310 311 311 310 309 309 309 310 310 310 311 311 312 312 311 310 310 310 310 313 312 316 312 312 314 314 313 313 315 316 314 315 317 317 319 319 318 318 318 317
310 310 309 310 310 310 312 312 309 310 310 309 311 310 310 310 311 311 311 311 311 311 311 312 315 313 313 312 312 311 311 312 313 313 314 314 314 315 316 317 318 316 316 316 317
307 307 306 306 308 310 309 310 309 309 309 309 311 310 310 309 309 311 311 312 313 313 313 313 315 313 312 312 311 311 312 311 312 312 312 313 313 314 314 314 315 315 315 316 316
304 304 304 305 309 310 311 310 310 309 307 308 309 310 311 310 309 309 310 311 312 313 314 313 314 315 315 313 314 313 312 312 312 312 312 312 313 314 314 314 315 315 315 316 317
Wind_Speed
12 11 11 11 11 10 10 10 10 11 11 12 12 11 11 11 10 11 11 12 13 14 16 11 13 14 17 26 26 23 17 19 24 22 19 14 19 26 19 21 18 11 16 3 6
12 12 12 12 11 11 9 9 10 12 13 12 11 12 13 14 12 7 7 9 7 6 6 13 17 16 22 22 30 25 18 27 23 19 16 13 18 21 20 18 21 19 6 3 7
13 13 13 13 11 10 9 9 11 13 14 14 12 11 10 11 8 3 4 12 10 7 9 12 15 20 27 28 29 31 28 26 26 27 24 18 22 21 23 17 24 20 18 11 6
15 14 13 13 11 10 9 10 10 11 11 12 12 11 9 2 1 0 9 11 8 6 8 11 14 21 24 26 32 28 39 34 34 36 25 18 23 25 29 26 24 22 22 20 9
15 14 14 14 11 11 10 11 12 12 11 11 13 10 3 4 7 6 11 13 10 6 7 11 16 18 24 26 30 33 31 37 38 34 31 32 25 27 29 31 29 27 16 17 15
15 14 13 12 11 10 10 12 13 14 13 11 10 3 5 4 4 7 9 10 7 9 8 8 13 17 25 26 27 34 34 38 38 37 36 29 31 24 37 31 33 33 31 25 25
17 15 14 12 10 9 10 14 17 17 13 8 7 3 5 5 5 8 9 10 8 8 9 9 11 17 13 17 32 32 30 28 29 36 34 36 27 30 42 34 33 34 32 31 32
19 18 16 14 12 11 13 15 15 12 6 7 3 0 5 1 6 8 9 9 7 11 12 12 12 18 24 26 30 22 22 26 34 29 32 27 36 37 39 37 38 38 37 33 34
19 18 17 14 12 12 15 17 12 10 6 3 5 3 3 5 9 12 10 10 13 12 10 13 14 17 17 17 19 22 25 30 31 30 29 29 36 33 44 40 35 41 39 38 39
21 20 17 14 11 10 15 12 12 7 8 4 5 6 5 6 12 13 8 12 14 14 16 16 16 13 14 13 20 23 28 29 30 28 28 30 36 33 38 36 34 44 36 38 38
23 21 18 15 11 10 15 11 5 4 7 12 10 9 8 10 10 9 6 12 10 13 14 11 14 13 17 16 20 23 27 33 30 25 29 29 31 35 32 33 34 35 36 41 36
26 22 18 14 10 7 9 8 5 7 10 13 11 10 8 8 10 11 7 15 10 14 16 15 16 16 18 16 18 22 26 29 28 30 26 25 29 32 26 30 35 37 39 34 31
27 25 18 11 6 4 4 3 5 9 8 0 8 8 7 6 13 16 10 13 13 17 16 16 19 18 17 17 18 19 21 24 28 25 26 27 29 31 31 31 31 37 41 41 40
27 24 16 4 3 3 1 7 9 6 6 9 6 3 6 10 17 6 10 9 14 18 17 17 18 21 16 19 19 21 20 23 22 23 22 28 23 26 29 28 26 34 35 34 31
26 19 11 0 2 5 5 9 8 2 4 4 3 2 7 10 12 3 6 15 16 19 16 19 20 20 20 21 19 22 19 22 24 23 26 30 22 25 21 27 26 26 34 38 39
23 14 5 4 2 4 7 9 2 7 1 3 2 6 10 14 7 11 13 15 21 18 17 20 17 20 16 23 19 22 21 26 25 21 21 29 27 25 23 21 15 17 23 28 29
21 8 1 2 3 7 7 6 6 6 5 1 8 11 14 11 11 4 13 13 9 12 14 19 16 5 15 14 15 17 22 15 17 17 20 27 27 22 22 25 29 16 28 23 14
17 4 3 2 5 7 6 10 10 5 8 10 10 17 15 6 8 7 13 13 9 7 12 12 17 2 6 12 15 26 20 16 19 17 20 27 28 22 29 25 8 6 3 10 12
9 3 3 4 5 7 12 8 2 9 8 10 15 11 9 6 9 12 11 13 5 10 9 13 13 21 23 7 8 15 19 22 21 26 17 15 27 29 24 20 22 20 18 13 7
10 5 4 5 6 7 9 8 7 3 8 9 14 6 13 15 13 12 13 7 8 9 9 13 21 19 20 10 18 18 14 13 14 20 19 20 22 19 30 24 18 15 8 5 4
8 6 1 5 6 10 4 7 7 7 9 7 12 15 15 14 14 16 16 15 6 16 14 18 10 20 19 14 15 8 18 12 14 8 9 13 14 15 26 29 18 13 9 4 4
7 4 2 6 6 4 6 6 6 7 5 7 8 11 10 12 15 16 18 11 18 14 18 16 7 15 21 23 6 13 16 9 12 15 17 16 16 24 31 9 31 13 6 1 8
12 8 3 3 3 6 8 10 3 8 8 6 7 12 13 14 9 10 17 16 18 15 6 9 5 12 15 3 11 10 18 9 7 12 19 12 13 11 10 16 15 8 4 3 12
8 4 1 2 2 6 10 9 7 1 10 8 9 15 11 13 14 10 17 11 15 19 19 13 14 14 15 21 6 7 16 13 12 6 21 19 19 13 27 14 10 3 6 11 15
6 3 3 4 7 12 12 11 11 10 3 10 7 5 10 11 19 19 13 22 21 21 14 5 14 18 21 23 20 19 17 16 17 19 20 21 19 18 13 23 19 12 11 15 13
8 7 8 16 9 9 6 7 8 9 11 15 15 13 15 13 15 25 22 20 11 14 8 11 14 16 20 21 21 22 20 18 20 21 25 22 24 21 18 26 21 16 18 13 13
5 4 6 10 6 8 6 6 10 15 11 9 8 15 18 18 20 25 32 30 19 12 16 9 11 13 14 10 16 15 16 16 16 18 18 21 23 21 17 15 13 16 17 14 12
Wind_Direction
5 3 0 356 352 349 345 343 344 343 340 337 331 328 326 322 306 317 278 248 236 265 235 244 253 242 232 234 230 234 249 249 252 253 253 242 248 247 253 254 271 237 240 27 139
0 358 358 356 356 358 358 360 354 350 344 335 331 332 333 328 321 291 265 278 290 310 278 253 245 236 231 232 229 228 239 241 253 265 280 267 263 264 241 226 238 216 233 219 196
355 353 354 354 354 359 3 357 354 351 342 335 336 336 333 323 308 104 303 327 308 286 282 261 250 242 234 235 229 230 241 248 248 246 256 258 263 263 265 240 220 228 200 203 172
347 348 350 351 350 353 350 348 351 358 356 355 353 349 344 23 359 113 345 9 355 341 279 261 246 241 242 237 234 241 242 244 255 269 272 245 256 263 265 256 248 231 219 189 187
344 344 344 345 346 345 342 339 341 343 348 352 352 345 56 217 49 327 347 341 348 324 288 262 257 250 247 246 246 240 248 249 250 251 254 264 245 255 255 251 253 249 240 217 232
345 341 340 342 339 341 334 331 329 328 333 345 3 4 346 247 352 340 332 337 322 313 303 281 266 261 271 263 250 255 252 251 253 253 249 242 249 252 253 251 251 245 248 240 238
348 341 336 334 335 339 337 329 324 319 322 342 2 133 295 56 339 331 337 328 317 307 292 289 286 263 268 256 252 262 265 267 261 245 248 250 248 237 248 250 247 250 242 242 245
352 346 337 332 331 332 337 333 328 326 332 343 9 6 284 5 358 346 327 323 315 310 286 283 283 274 263 262 274 280 261 250 245 247 248 240 250 247 245 244 246 246 248 241 239
352 346 339 328 322 330 339 339 342 343 349 29 34 274 171 315 346 333 326 319 313 307 290 279 279 276 265 248 254 247 250 245 253 242 240 237 248 249 251 251 247 241 242 242 243
349 344 339 329 319 331 341 349 336 345 359 325 271 248 219 335 327 324 320 317 308 306 294 252 267 253 243 237 248 253 245 248 255 257 234 236 241 246 248 250 253 256 250 237 238
346 342 334 328 316 332 351 320 306 218 255 291 306 284 296 313 318 326 308 314 296 286 275 287 270 255 278 280 272 274 273 277 274 264 244 259 241 244 240 239 252 257 240 244 244
344 340 332 321 312 329 15 5 11 326 300 278 253 259 279 300 303 323 294 310 303 297 300 277 252 257 260 275 289 283 278 271 271 268 273 265 256 260 248 239 234 243 249 252 242
344 340 335 321 316 353 332 351 331 322 266 232 221 255 274 271 296 297 297 298 290 298 292 291 291 298 287 265 261 269 268 275 279 285 267 260 262 266 259 249 244 244 246 249 248
343 341 341 356 53 326 241 332 331 305 270 132 201 197 257 292 272 286 286 283 288 292 296 291 289 282 281 272 268 271 273 277 270 264 260 251 259 246 245 249 243 246 243 246 249
342 343 349 247 315 322 311 323 311 267 262 119 152 1 270 270 300 151 264 280 282 294 287 290 290 280 266 279 284 282 286 282 275 264 256 256 254 251 244 238 236 237 243 244 243
342 341 6 37 352 311 330 320 313 234 45 173 269 270 297 303 280 272 281 280 268 260 274 278 337 285 281 305 288 292 284 275 267 259 249 245 246 245 240 251 253 256 254 247 245
342 330 255 146 324 315 313 288 244 294 123 46 329 314 310 293 307 301 310 299 303 310 310 314 285 263 272 310 284 268 264 262 251 242 251 246 247 241 250 249 255 272 245 235 237
344 313 251 241 310 318 308 255 271 345 324 352 318 302 270 352 312 285 293 297 327 310 309 306 309 21 306 288 310 291 262 257 257 258 251 230 246 247 235 243 195 265 310 253 226
6 356 242 260 305 318 279 271 292 348 355 326 311 306 326 307 315 305 303 306 323 319 305 304 295 311 301 297 295 309 245 251 261 264 273 272 283 232 250 214 242 249 238 215 232
342 279 198 303 291 299 261 285 294 4 311 310 300 312 320 320 331 317 315 330 307 326 318 306 295 297 285 262 260 235 259 256 248 256 274 260 248 242 217 238 221 226 160 181 241
355 276 65 334 292 247 273 297 329 338 314 311 321 306 306 320 307 308 305 314 347 331 326 313 291 288 295 260 276 243 233 223 273 277 264 290 290 350 200 201 216 154 160 125 335
348 275 350 349 266 278 266 1 322 281 272 272 291 301 294 320 309 298 299 321 326 326 309 308 291 287 286 289 217 238 257 236 243 247 255 254 276 296 289 200 188 123 149 74 332
328 295 344 6 309 327 313 301 253 294 308 301 280 299 300 292 296 287 305 311 310 311 325 341 293 308 290 43 12 337 308 242 290 288 266 285 269 297 111 116 126 141 99 320 340
324 320 345 353 343 312 330 308 292 232 287 285 282 285 301 295 282 281 292 317 317 308 298 279 271 261 275 293 181 222 253 286 238 253 267 248 256 266 292 134 152 169 342 328 318
334 3 339 313 328 323 296 295 288 296 288 299 290 269 287 304 311 288 306 313 308 297 283 239 264 274 279 285 293 289 279 258 255 264 272 289 296 268 264 302 315 346 321 301 308
343 338 331 292 291 284 289 286 310 301 320 301 286 308 307 280 274 286 295 294 300 302 294 294 274 274 283 290 287 281 272 253 257 266 270 261 270 279 239 258 286 292 285 293 306
334 314 327 294 282 284 284 315 319 327 300 283 298 282 291 296 296 281 280 284 274 254 285 286 280 283 266 313 319 293 266 270 274 261 275 263 273 282 278 272 279 280 277 283 286